Home > Weather > Monza > Past weeks

Flag for Italy Weather for the Past 2 Weeks in Monza, Italy

Now
39 °F

Sunny.


Feels Like: 39 °F
Forecast: 31 / 46 °F
Wind: 2 mph from North

Location: Milan / Linate

Current Time: Feb 11, 2016 at 10:04:59 AM

Latest Report: Feb 11, 2016 at 9:20 AM


Visibility: 10 mi

Pressure: 29.77 "Hg

Humidity: 61%

Dew point: 27 °F

Location of MonzaLocation

Historic Weather in Monza — Graph

°F

Monza Temperature Yesterday

Maximum temperature yesterday: 55 °F (at 1:50 PM)
Minimum temperature yesterday: 36 °F (at 10:50 PM)
Average temperature yesterday: 48 °F

High & Low Weather Summary for the Past Weeks

 TemperatureHumidityPressure
High59 °F (Jan 29, 3:20 PM)100% (Jan 29, 7:20 AM)30.48 "Hg (Jan 29, 7:20 AM)
Low30 °F (Feb 11, 5:20 AM)18% (Feb 10, 2:20 PM)29.33 "Hg (Feb 10, 12:50 AM)
Average45 °F80%30.11 "Hg
* Reported Jan 27 8:20 AM — Feb 11 8:50 AM, Monza, Weather by CustomWeather, © 2016

Note: Actual official high and low records may vary slightly from our data, if they occured in-between our weather recording intervals... More about our weather records

Advertising

Monza Weather History for the Previous 24 Hours

 ConditionsComfort  
Time TempWeatherWind HumidityBarometerVisibility
8:50 AM
Thu, Feb 11
37 °FSunny.1 mph65%29.77 "Hg10 mi
8:20 AM32 °FSunny.3 mph75%29.77 "Hg10 mi
7:50 AM30 °FSunny.1 mph80%29.74 "Hg10 mi
7:20 AM30 °FClear.2 mph80%29.74 "Hg10 mi
6:50 AM30 °FClear.2 mph80%29.71 "Hg10 mi
6:20 AM30 °FClear.2 mph80%29.71 "Hg10 mi
5:50 AM30 °FPassing clouds.5 mph86%29.71 "HgN/A
5:20 AM30 °FClear.No wind86%29.71 "Hg10 mi
4:50 AM32 °FClear.No wind80%29.71 "Hg10 mi
4:20 AM32 °FClear.No wind75%29.68 "Hg10 mi
3:50 AM32 °FClear.2 mph80%29.68 "Hg10 mi
3:20 AM32 °FClear.1 mph75%29.68 "Hg10 mi
2:50 AM32 °FPassing clouds.3 mph75%29.68 "HgN/A
2:20 AM34 °FClear.1 mph70%29.68 "Hg10 mi
1:50 AM34 °FClear.2 mph70%29.65 "Hg10 mi
1:20 AM34 °FClear.1 mph70%29.65 "Hg10 mi
12:50 AM37 °FClear.5 mph60%29.65 "Hg10 mi
11:50 PM
Wed, Feb 10
37 °FClear.6 mph60%29.62 "Hg10 mi
11:20 PM37 °FPassing clouds.5 mph56%29.62 "HgN/A
10:50 PM36 °FPassing clouds.5 mph60%29.62 "HgN/A
9:50 PM45 °FClear.5 mph31%29.62 "Hg10 mi
9:20 PM43 °FClear.2 mph39%29.59 "Hg10 mi
8:50 PM45 °FPassing clouds.3 mph34%29.59 "HgN/A
8:20 PM45 °FClear.5 mph34%29.59 "Hg10 mi
7:50 PM45 °FClear.6 mph34%29.59 "Hg10 mi
7:20 PM46 °FPassing clouds.3 mph32%29.59 "HgN/A
6:50 PM50 °FPassing clouds.3 mph24%29.59 "HgN/A
6:20 PM50 °FClear.2 mph28%29.56 "Hg10 mi
5:50 PM50 °FPassing clouds.3 mph28%29.56 "HgN/A
5:20 PM52 °FPassing clouds.7 mph26%29.53 "HgN/A
4:50 PM54 °FPassing clouds.6 mph22%29.53 "HgN/A
4:20 PM55 °FSunny.5 mph23%29.53 "Hg10 mi
3:50 PM55 °FPassing clouds.6 mph21%29.50 "HgN/A
3:20 PM55 °FPassing clouds.9 mph21%29.50 "HgN/A
2:50 PM55 °FPassing clouds.7 mph19%29.50 "HgN/A
2:20 PM55 °FSunny.7 mph18%29.50 "Hg10 mi
1:50 PM55 °FPassing clouds.9 mph19%29.50 "HgN/A
1:20 PM54 °FPassing clouds.10 mph22%29.50 "HgN/A
12:50 PM54 °FPassing clouds.12 mph21%29.50 "HgN/A
12:20 PM54 °FPassing clouds.12 mph21%29.50 "HgN/A
11:50 AM54 °FPassing clouds.8 mph30%29.50 "HgN/A
11:20 AM52 °FPassing clouds.9 mph32%29.47 "HgN/A
10:50 AM52 °FPassing clouds.8 mph32%29.47 "HgN/A
10:20 AM50 °FPassing clouds.8 mph35%29.47 "HgN/A
Weather by CustomWeather, © 2016

See weather overviewHow to use our weather pages